Home   Weather   Korbach   Past weeks

Flag for Germany Past Weather in Korbach, Hesse, Germany — Yesterday and Last 2 Weeks

Now
59 °F

Scattered showers. Broken clouds.


Feels Like: 60 °F
Forecast: 48 / 65 °F
Wind: 3 mph from Northeast

Location: Fritzlar Airport

Current Time: Aug 20, 2017 at 9:30:24 pm

Latest Report: Aug 20, 2017 at 8:20 pm


Visibility: N/A

Pressure: 30.21 "Hg

Humidity: 72%

Dew Point: 50 °F

Location of KorbachLocation

Past Weather in Korbach — Graph

°F

Korbach Temperature Yesterday

Maximum temperature yesterday: 64 °F (at 1:20 pm)
Minimum temperature yesterday: 50 °F (at 5:20 am)
Average temperature yesterday: 59 °F

High & Low Weather Summary for the Past Weeks

 TemperatureHumidityPressure
High79 °F (Aug 15, 2:20 pm)100% (Aug 11, 4:20 am)30.21 "Hg (Aug 11, 4:20 am)
Low46 °F (Aug 7, 5:20 am)34% (Aug 7, 3:20 pm)29.80 "Hg (Aug 8, 4:20 pm)
Average62 °F79%30.05 "Hg
* Reported Aug 5 7:20 pm — Aug 20 7:20 pm, Korbach. Weather by CustomWeather, © 2017

Note: Actual official high and low records may vary slightly from our data, if they occured in-between our weather recording intervals... More about our weather records

Advertising

Korbach Weather History for the Previous 24 Hours

Scroll right to see more
 ConditionsComfort  
Time TempWeatherWind HumidityBarometerVisibility
7:20 pm
Sun, Aug 20
63 °FScattered showers. Broken clouds.8 mph59%30.21 "HgN/A
6:20 pm64 °FPartly sunny.6 mph56%30.18 "HgN/A
5:20 pm64 °FScattered clouds.12 mph52%30.18 "HgN/A
4:20 pm64 °FScattered clouds.14 mph52%30.18 "HgN/A
3:20 pm64 °FBroken clouds.13 mph56%30.18 "HgN/A
2:20 pm64 °FPartly sunny.13 mph56%30.18 "HgN/A
1:20 pm64 °FPartly sunny.15 mph49%30.18 "HgN/A
12:20 pm63 °FScattered showers. Broken clouds.16 mph59%30.18 "HgN/A
11:20 am63 °FPassing clouds.12 mph64%30.18 "HgN/A
10:20 am59 °FPassing clouds.8 mph72%30.18 "HgN/A
9:20 am57 °FPassing clouds.9 mph82%30.18 "HgN/A
8:20 am55 °FScattered clouds.6 mph88%30.18 "HgN/A
7:20 am54 °FScattered clouds.6 mph88%30.15 "HgN/A
6:20 am52 °FScattered clouds.8 mph94%30.15 "HgN/A
5:20 am54 °FPassing clouds.6 mph94%30.15 "HgN/A
4:20 am54 °FPassing clouds.5 mph94%30.15 "HgN/A
3:20 am54 °FPassing clouds.6 mph94%30.12 "HgN/A
2:20 am52 °FPassing clouds.3 mph100%30.12 "HgN/A
1:20 am54 °FPassing clouds.5 mph88%30.12 "HgN/A
12:20 am55 °FPassing clouds.5 mph88%30.12 "HgN/A
11:20 pm
Sat, Aug 19
55 °FPassing clouds.2 mph88%30.12 "HgN/A
10:20 pm55 °FPassing clouds.5 mph88%30.12 "HgN/A
9:20 pm59 °FPartly cloudy.5 mph82%30.09 "HgN/A
Weather by CustomWeather, © 2017

See weather overviewHow to use our weather pages